<?xml version="1.0" encoding="UTF-8" standalone="no" ?>
<gpx xmlns="http://www.topografix.com/GPX/1/1" xmlns:xsi="http://www.w3.org/2001/XMLSchema-instance" xsi:schemaLocation="http://www.topografix.com/GPX/1/1 http://www.topografix.com/GPX/1/1/gpx.xsd" version="1.1" creator="VisuGPX - https://www.visugpx.com">
  <metadata>
    <name>lundi 2015 08</name>
    <desc><![CDATA[cumul parcours aout 2015]]></desc>
  </metadata>
  <trk>
    <name><![CDATA[lundi 2015 08 31]]></name>
    <extensions>
      <line xmlns="http://www.topografix.com/GPX/gpx_style/0/2">
        <color>000000</color>
      </line>
    </extensions>
    <trkseg>
      <trkpt lat="48.85743" lon="2.34703">
        <ele>6.8000001907349</ele>
        <time>2015-08-31T18:21:01Z</time>
      </trkpt>
      <trkpt lat="48.85731" lon="2.34692">
        <ele>19.39999961853</ele>
        <time>2015-08-31T18:21:05Z</time>
      </trkpt>
      <trkpt lat="48.85729" lon="2.34698">
        <ele>26.799999237061</ele>
        <time>2015-08-31T18:21:06Z</time>
      </trkpt>
      <trkpt lat="48.85713" lon="2.34694">
        <ele>29</ele>
        <time>2015-08-31T18:21:11Z</time>
      </trkpt>
      <trkpt lat="48.85707" lon="2.34686">
        <ele>35.400001525879</ele>
        <time>2015-08-31T18:21:13Z</time>
      </trkpt>
      <trkpt lat="48.85701" lon="2.34678">
        <ele>34.599998474121</ele>
        <time>2015-08-31T18:21:17Z</time>
      </trkpt>
      <trkpt lat="48.85684" lon="2.34667">
        <ele>32.79999923706</ele>
        <time>2015-08-31T18:21:27Z</time>
      </trkpt>
      <trkpt lat="48.85665" lon="2.34657">
        <ele>28.799999237061</ele>
        <time>2015-08-31T18:21:34Z</time>
      </trkpt>
      <trkpt lat="48.85646" lon="2.34647">
        <ele>29.200000762939</ele>
        <time>2015-08-31T18:21:41Z</time>
      </trkpt>
      <trkpt lat="48.85626" lon="2.34637">
        <ele>28</ele>
        <time>2015-08-31T18:21:47Z</time>
      </trkpt>
      <trkpt lat="48.85607" lon="2.34631">
        <ele>27</ele>
        <time>2015-08-31T18:21:52Z</time>
      </trkpt>
      <trkpt lat="48.85588" lon="2.34616">
        <ele>26</ele>
        <time>2015-08-31T18:21:57Z</time>
      </trkpt>
      <trkpt lat="48.85568" lon="2.34607">
        <ele>25.200000762939</ele>
        <time>2015-08-31T18:22:01Z</time>
      </trkpt>
      <trkpt lat="48.8555" lon="2.34596">
        <ele>24.200000762939</ele>
        <time>2015-08-31T18:22:05Z</time>
      </trkpt>
      <trkpt lat="48.85532" lon="2.34582">
        <ele>23.60000038147</ele>
        <time>2015-08-31T18:22:09Z</time>
      </trkpt>
      <trkpt lat="48.85516" lon="2.34566">
        <ele>23</ele>
        <time>2015-08-31T18:22:13Z</time>
      </trkpt>
      <trkpt lat="48.85501" lon="2.34555">
        <ele>22.60000038147</ele>
        <time>2015-08-31T18:22:17Z</time>
      </trkpt>
      <trkpt lat="48.85483" lon="2.34541">
        <ele>22.200000762939</ele>
        <time>2015-08-31T18:22:23Z</time>
      </trkpt>
      <trkpt lat="48.85473" lon="2.3453">
        <ele>22.39999961853</ele>
        <time>2015-08-31T18:22:26Z</time>
      </trkpt>
      <trkpt lat="48.85455" lon="2.34512">
        <ele>23</ele>
        <time>2015-08-31T18:22:31Z</time>
      </trkpt>
      <trkpt lat="48.85448" lon="2.34507">
        <ele>23.39999961853</ele>
        <time>2015-08-31T18:22:33Z</time>
      </trkpt>
      <trkpt lat="48.85436" lon="2.34497">
        <ele>24.39999961853</ele>
        <time>2015-08-31T18:22:37Z</time>
      </trkpt>
      <trkpt lat="48.8542" lon="2.34479">
        <ele>26.799999237061</ele>
        <time>2015-08-31T18:22:42Z</time>
      </trkpt>
      <trkpt lat="48.85406" lon="2.34459">
        <ele>28.60000038147</ele>
        <time>2015-08-31T18:22:47Z</time>
      </trkpt>
      <trkpt lat="48.85392" lon="2.3444">
        <ele>31.39999961853</ele>
        <time>2015-08-31T18:22:54Z</time>
      </trkpt>
      <trkpt lat="48.85378" lon="2.34422">
        <ele>31.60000038147</ele>
        <time>2015-08-31T18:23:02Z</time>
      </trkpt>
      <trkpt lat="48.85361" lon="2.34411">
        <ele>32.599998474121</ele>
        <time>2015-08-31T18:23:07Z</time>
      </trkpt>
      <trkpt lat="48.85339" lon="2.34408">
        <ele>32.20000076294</ele>
        <time>2015-08-31T18:23:12Z</time>
      </trkpt>
      <trkpt lat="48.85321" lon="2.34399">
        <ele>32</ele>
        <time>2015-08-31T18:23:16Z</time>
      </trkpt>
      <trkpt lat="48.85301" lon="2.34388">
        <ele>32.599998474121</ele>
        <time>2015-08-31T18:23:21Z</time>
      </trkpt>
      <trkpt lat="48.85284" lon="2.34381">
        <ele>33</ele>
        <time>2015-08-31T18:23:28Z</time>
      </trkpt>
      <trkpt lat="48.85266" lon="2.34373">
        <ele>35.599998474121</ele>
        <time>2015-08-31T18:23:34Z</time>
      </trkpt>
      <trkpt lat="48.85247" lon="2.34365">
        <ele>36.400001525879</ele>
        <time>2015-08-31T18:23:39Z</time>
      </trkpt>
      <trkpt lat="48.85227" lon="2.34356">
        <ele>37.20000076294</ele>
        <time>2015-08-31T18:23:44Z</time>
      </trkpt>
      <trkpt lat="48.85208" lon="2.34347">
        <ele>38.400001525879</ele>
        <time>2015-08-31T18:23:49Z</time>
      </trkpt>
      <trkpt lat="48.8519" lon="2.34339">
        <ele>39.599998474121</ele>
        <time>2015-08-31T18:23:54Z</time>
      </trkpt>
      <trkpt lat="48.85171" lon="2.34328">
        <ele>39.79999923706</ele>
        <time>2015-08-31T18:24:00Z</time>
      </trkpt>
      <trkpt lat="48.85153" lon="2.34319">
        <ele>39.400001525879</ele>
        <time>2015-08-31T18:24:05Z</time>
      </trkpt>
      <trkpt lat="48.85134" lon="2.34309">
        <ele>39.79999923706</ele>
        <time>2015-08-31T18:24:11Z</time>
      </trkpt>
      <trkpt lat="48.85113" lon="2.34302">
        <ele>38</ele>
        <time>2015-08-31T18:24:17Z</time>
      </trkpt>
      <trkpt lat="48.85095" lon="2.34294">
        <ele>38</ele>
        <time>2015-08-31T18:24:22Z</time>
      </trkpt>
      <trkpt lat="48.85077" lon="2.34285">
        <ele>36.79999923706</ele>
        <time>2015-08-31T18:24:27Z</time>
      </trkpt>
      <trkpt lat="48.85058" lon="2.34275">
        <ele>36</ele>
        <time>2015-08-31T18:24:33Z</time>
      </trkpt>
      <trkpt lat="48.85038" lon="2.34264">
        <ele>36.20000076294</ele>
        <time>2015-08-31T18:24:39Z</time>
      </trkpt>
      <trkpt lat="48.85019" lon="2.34253">
        <ele>38</ele>
        <time>2015-08-31T18:24:45Z</time>
      </trkpt>
      <trkpt lat="48.85" lon="2.34243">
        <ele>40</ele>
        <time>2015-08-31T18:24:50Z</time>
      </trkpt>
      <trkpt lat="48.84981" lon="2.34234">
        <ele>43.20000076294</ele>
        <time>2015-08-31T18:24:55Z</time>
      </trkpt>
      <trkpt lat="48.84963" lon="2.34225">
        <ele>44.20000076294</ele>
        <time>2015-08-31T18:24:59Z</time>
      </trkpt>
      <trkpt lat="48.84944" lon="2.34214">
        <ele>43.79999923706</ele>
        <time>2015-08-31T18:25:04Z</time>
      </trkpt>
      <trkpt lat="48.84925" lon="2.34203">
        <ele>44</ele>
        <time>2015-08-31T18:25:09Z</time>
      </trkpt>
      <trkpt lat="48.84906" lon="2.34193">
        <ele>44.79999923706</ele>
        <time>2015-08-31T18:25:14Z</time>
      </trkpt>
      <trkpt lat="48.84889" lon="2.3418">
        <ele>46.400001525879</ele>
        <time>2015-08-31T18:25:19Z</time>
      </trkpt>
      <trkpt lat="48.84872" lon="2.3417">
        <ele>49.599998474121</ele>
        <time>2015-08-31T18:25:24Z</time>
      </trkpt>
      <trkpt lat="48.84855" lon="2.3416">
        <ele>50.599998474121</ele>
        <time>2015-08-31T18:25:29Z</time>
      </trkpt>
      <trkpt lat="48.84834" lon="2.3415">
        <ele>52.79999923706</ele>
        <time>2015-08-31T18:25:34Z</time>
      </trkpt>
      <trkpt lat="48.84816" lon="2.34138">
        <ele>53</ele>
        <time>2015-08-31T18:25:39Z</time>
      </trkpt>
      <trkpt lat="48.84797" lon="2.34124">
        <ele>54</ele>
        <time>2015-08-31T18:25:44Z</time>
      </trkpt>
      <trkpt lat="48.84781" lon="2.34111">
        <ele>55.599998474121</ele>
        <time>2015-08-31T18:25:49Z</time>
      </trkpt>
      <trkpt lat="48.84764" lon="2.34099">
        <ele>54.79999923706</ele>
        <time>2015-08-31T18:25:56Z</time>
      </trkpt>
      <trkpt lat="48.84758" lon="2.34095">
        <ele>56.20000076294</ele>
        <time>2015-08-31T18:26:00Z</time>
      </trkpt>
      <trkpt lat="48.84743" lon="2.34082">
        <ele>58.20000076294</ele>
        <time>2015-08-31T18:26:19Z</time>
      </trkpt>
      <trkpt lat="48.84725" lon="2.34073">
        <ele>58.400001525879</ele>
        <time>2015-08-31T18:26:25Z</time>
      </trkpt>
      <trkpt lat="48.84706" lon="2.34062">
        <ele>56.79999923706</ele>
        <time>2015-08-31T18:26:31Z</time>
      </trkpt>
      <trkpt lat="48.84686" lon="2.34052">
        <ele>56.599998474121</ele>
        <time>2015-08-31T18:26:37Z</time>
      </trkpt>
      <trkpt lat="48.84668" lon="2.34044">
        <ele>56.599998474121</ele>
        <time>2015-08-31T18:26:43Z</time>
      </trkpt>
      <trkpt lat="48.84649" lon="2.34038">
        <ele>56.400001525879</ele>
        <time>2015-08-31T18:26:51Z</time>
      </trkpt>
      <trkpt lat="48.84628" lon="2.34028">
        <ele>56.400001525879</ele>
        <time>2015-08-31T18:26:56Z</time>
      </trkpt>
      <trkpt lat="48.8461" lon="2.34015">
        <ele>56.599998474121</ele>
        <time>2015-08-31T18:27:00Z</time>
      </trkpt>
      <trkpt lat="48.84589" lon="2.34003">
        <ele>56.599998474121</ele>
        <time>2015-08-31T18:27:04Z</time>
      </trkpt>
      <trkpt lat="48.84568" lon="2.33992">
        <ele>56.599998474121</ele>
        <time>2015-08-31T18:27:08Z</time>
      </trkpt>
      <trkpt lat="48.84546" lon="2.3398">
        <ele>56.400001525879</ele>
        <time>2015-08-31T18:27:12Z</time>
      </trkpt>
      <trkpt lat="48.84524" lon="2.33969">
        <ele>56.20000076294</ele>
        <time>2015-08-31T18:27:16Z</time>
      </trkpt>
      <trkpt lat="48.84502" lon="2.33957">
        <ele>56.599998474121</ele>
        <time>2015-08-31T18:27:20Z</time>
      </trkpt>
      <trkpt lat="48.84492" lon="2.33951">
        <ele>57</ele>
        <time>2015-08-31T18:27:22Z</time>
      </trkpt>
      <trkpt lat="48.8447" lon="2.33939">
        <ele>57.599998474121</ele>
        <time>2015-08-31T18:27:26Z</time>
      </trkpt>
      <trkpt lat="48.84449" lon="2.33925">
        <ele>59</ele>
        <time>2015-08-31T18:27:30Z</time>
      </trkpt>
      <trkpt lat="48.84433" lon="2.33916">
        <ele>59.20000076294</ele>
        <time>2015-08-31T18:27:33Z</time>
      </trkpt>
      <trkpt lat="48.84411" lon="2.33908">
        <ele>59.79999923706</ele>
        <time>2015-08-31T18:27:37Z</time>
      </trkpt>
      <trkpt lat="48.84406" lon="2.33906">
        <ele>60.400001525879</ele>
        <time>2015-08-31T18:27:38Z</time>
      </trkpt>
      <trkpt lat="48.84387" lon="2.33893">
        <ele>59.599998474121</ele>
        <time>2015-08-31T18:27:42Z</time>
      </trkpt>
      <trkpt lat="48.84372" lon="2.33885">
        <ele>60</ele>
        <time>2015-08-31T18:27:45Z</time>
      </trkpt>
      <trkpt lat="48.84351" lon="2.33873">
        <ele>60.400001525879</ele>
        <time>2015-08-31T18:27:49Z</time>
      </trkpt>
      <trkpt lat="48.84331" lon="2.33863">
        <ele>61</ele>
        <time>2015-08-31T18:27:53Z</time>
      </trkpt>
      <trkpt lat="48.84311" lon="2.33853">
        <ele>61.400001525879</ele>
        <time>2015-08-31T18:27:57Z</time>
      </trkpt>
      <trkpt lat="48.8429" lon="2.33842">
        <ele>61.599998474121</ele>
        <time>2015-08-31T18:28:01Z</time>
      </trkpt>
      <trkpt lat="48.84269" lon="2.3383">
        <ele>59.599998474121</ele>
        <time>2015-08-31T18:28:05Z</time>
      </trkpt>
      <trkpt lat="48.84254" lon="2.3382">
        <ele>59.79999923706</ele>
        <time>2015-08-31T18:28:08Z</time>
      </trkpt>
      <trkpt lat="48.8424" lon="2.33813">
        <ele>60.400001525879</ele>
        <time>2015-08-31T18:28:11Z</time>
      </trkpt>
      <trkpt lat="48.84222" lon="2.33806">
        <ele>59.599998474121</ele>
        <time>2015-08-31T18:28:15Z</time>
      </trkpt>
      <trkpt lat="48.84217" lon="2.33804">
        <ele>59.20000076294</ele>
        <time>2015-08-31T18:28:16Z</time>
      </trkpt>
      <trkpt lat="48.84204" lon="2.33796">
        <ele>57.79999923706</ele>
        <time>2015-08-31T18:28:19Z</time>
      </trkpt>
      <trkpt lat="48.84186" lon="2.33784">
        <ele>56.79999923706</ele>
        <time>2015-08-31T18:28:23Z</time>
      </trkpt>
      <trkpt lat="48.84167" lon="2.33772">
        <ele>56.79999923706</ele>
        <time>2015-08-31T18:28:27Z</time>
      </trkpt>
      <trkpt lat="48.84152" lon="2.33763">
        <ele>56.599998474121</ele>
        <time>2015-08-31T18:28:30Z</time>
      </trkpt>
      <trkpt lat="48.84131" lon="2.33752">
        <ele>55.79999923706</ele>
        <time>2015-08-31T18:28:34Z</time>
      </trkpt>
      <trkpt lat="48.84112" lon="2.3374">
        <ele>56</ele>
        <time>2015-08-31T18:28:38Z</time>
      </trkpt>
      <trkpt lat="48.84092" lon="2.33726">
        <ele>56</ele>
        <time>2015-08-31T18:28:42Z</time>
      </trkpt>
      <trkpt lat="48.84076" lon="2.33714">
        <ele>57.400001525879</ele>
        <time>2015-08-31T18:28:45Z</time>
      </trkpt>
      <trkpt lat="48.84058" lon="2.337">
        <ele>57.20000076294</ele>
        <time>2015-08-31T18:28:48Z</time>
      </trkpt>
      <trkpt lat="48.84041" lon="2.33684">
        <ele>57.599998474121</ele>
        <time>2015-08-31T18:28:51Z</time>
      </trkpt>
      <trkpt lat="48.84023" lon="2.33668">
        <ele>58.400001525879</ele>
        <time>2015-08-31T18:28:54Z</time>
      </trkpt>
      <trkpt lat="48.8401" lon="2.33662">
        <ele>58.79999923706</ele>
        <time>2015-08-31T18:28:56Z</time>
      </trkpt>
      <trkpt lat="48.83992" lon="2.33658">
        <ele>58.400001525879</ele>
        <time>2015-08-31T18:28:59Z</time>
      </trkpt>
      <trkpt lat="48.83986" lon="2.33658">
        <ele>58.400001525879</ele>
        <time>2015-08-31T18:29:00Z</time>
      </trkpt>
      <trkpt lat="48.83974" lon="2.33657">
        <ele>58</ele>
        <time>2015-08-31T18:29:02Z</time>
      </trkpt>
      <trkpt lat="48.83956" lon="2.33657">
        <ele>56.599998474121</ele>
        <time>2015-08-31T18:29:06Z</time>
      </trkpt>
      <trkpt lat="48.83936" lon="2.33662">
        <ele>54.79999923706</ele>
        <time>2015-08-31T18:29:11Z</time>
      </trkpt>
      <trkpt lat="48.83933" lon="2.33662">
        <ele>54.79999923706</ele>
        <time>2015-08-31T18:29:12Z</time>
      </trkpt>
      <trkpt lat="48.83915" lon="2.33661">
        <ele>55.20000076294</ele>
        <time>2015-08-31T18:29:17Z</time>
      </trkpt>
      <trkpt lat="48.83899" lon="2.33659">
        <ele>57.400001525879</ele>
        <time>2015-08-31T18:29:24Z</time>
      </trkpt>
      <trkpt lat="48.83894" lon="2.33659">
        <ele>58.79999923706</ele>
        <time>2015-08-31T18:29:27Z</time>
      </trkpt>
      <trkpt lat="48.83879" lon="2.33669">
        <ele>69.800003051758</ele>
        <time>2015-08-31T18:30:08Z</time>
      </trkpt>
      <trkpt lat="48.83874" lon="2.33667">
        <ele>69.199996948242</ele>
        <time>2015-08-31T18:30:09Z</time>
      </trkpt>
      <trkpt lat="48.83852" lon="2.33659">
        <ele>68.800003051758</ele>
        <time>2015-08-31T18:30:13Z</time>
      </trkpt>
      <trkpt lat="48.83831" lon="2.33643">
        <ele>68.599998474121</ele>
        <time>2015-08-31T18:30:17Z</time>
      </trkpt>
      <trkpt lat="48.83814" lon="2.3363">
        <ele>70.199996948242</ele>
        <time>2015-08-31T18:30:20Z</time>
      </trkpt>
      <trkpt lat="48.83798" lon="2.33613">
        <ele>71.199996948242</ele>
        <time>2015-08-31T18:30:23Z</time>
      </trkpt>
      <trkpt lat="48.83782" lon="2.33595">
        <ele>70.599998474121</ele>
        <time>2015-08-31T18:30:26Z</time>
      </trkpt>
      <trkpt lat="48.83765" lon="2.33568">
        <ele>64</ele>
        <time>2015-08-31T18:30:29Z</time>
      </trkpt>
      <trkpt lat="48.83748" lon="2.33549">
        <ele>61.599998474121</ele>
        <time>2015-08-31T18:30:32Z</time>
      </trkpt>
      <trkpt lat="48.83731" lon="2.33531">
        <ele>61.20000076294</ele>
        <time>2015-08-31T18:30:35Z</time>
      </trkpt>
      <trkpt lat="48.83714" lon="2.33512">
        <ele>61.20000076294</ele>
        <time>2015-08-31T18:30:38Z</time>
      </trkpt>
      <trkpt lat="48.83698" lon="2.33493">
        <ele>60.400001525879</ele>
        <time>2015-08-31T18:30:41Z</time>
      </trkpt>
      <trkpt lat="48.83687" lon="2.33481">
        <ele>60.20000076294</ele>
        <time>2015-08-31T18:30:43Z</time>
      </trkpt>
      <trkpt lat="48.83671" lon="2.33464">
        <ele>60.79999923706</ele>
        <time>2015-08-31T18:30:46Z</time>
      </trkpt>
      <trkpt lat="48.83665" lon="2.33458">
        <ele>60.599998474121</ele>
        <time>2015-08-31T18:30:47Z</time>
      </trkpt>
      <trkpt lat="48.83649" lon="2.33443">
        <ele>59</ele>
        <time>2015-08-31T18:30:50Z</time>
      </trkpt>
      <trkpt lat="48.83638" lon="2.33431">
        <ele>58.599998474121</ele>
        <time>2015-08-31T18:30:52Z</time>
      </trkpt>
      <trkpt lat="48.8362" lon="2.33413">
        <ele>58.20000076294</ele>
        <time>2015-08-31T18:30:55Z</time>
      </trkpt>
      <trkpt lat="48.83602" lon="2.33399">
        <ele>58.20000076294</ele>
        <time>2015-08-31T18:30:58Z</time>
      </trkpt>
      <trkpt lat="48.8359" lon="2.33386">
        <ele>58.20000076294</ele>
        <time>2015-08-31T18:31:00Z</time>
      </trkpt>
      <trkpt lat="48.83572" lon="2.33369">
        <ele>58.79999923706</ele>
        <time>2015-08-31T18:31:03Z</time>
      </trkpt>
      <trkpt lat="48.83554" lon="2.33351">
        <ele>58.79999923706</ele>
        <time>2015-08-31T18:31:06Z</time>
      </trkpt>
      <trkpt lat="48.83536" lon="2.33335">
        <ele>59</ele>
        <time>2015-08-31T18:31:09Z</time>
      </trkpt>
      <trkpt lat="48.83523" lon="2.33326">
        <ele>59.79999923706</ele>
        <time>2015-08-31T18:31:11Z</time>
      </trkpt>
      <trkpt lat="48.83507" lon="2.3331">
        <ele>60.20000076294</ele>
        <time>2015-08-31T18:31:14Z</time>
      </trkpt>
      <trkpt lat="48.8349" lon="2.33298">
        <ele>60.400001525879</ele>
        <time>2015-08-31T18:31:17Z</time>
      </trkpt>
      <trkpt lat="48.83473" lon="2.33282">
        <ele>61.20000076294</ele>
        <time>2015-08-31T18:31:21Z</time>
      </trkpt>
      <trkpt lat="48.83469" lon="2.3328">
        <ele>61.400001525879</ele>
        <time>2015-08-31T18:31:22Z</time>
      </trkpt>
      <trkpt lat="48.8346" lon="2.33282">
        <ele>63</ele>
        <time>2015-08-31T18:31:26Z</time>
      </trkpt>
      <trkpt lat="48.83456" lon="2.33289">
        <ele>63.400001525879</ele>
        <time>2015-08-31T18:31:29Z</time>
      </trkpt>
      <trkpt lat="48.83451" lon="2.33283">
        <ele>71.199996948242</ele>
        <time>2015-08-31T18:32:13Z</time>
      </trkpt>
      <trkpt lat="48.83436" lon="2.33303">
        <ele>70</ele>
        <time>2015-08-31T18:32:22Z</time>
      </trkpt>
      <trkpt lat="48.83432" lon="2.33312">
        <ele>67.599998474121</ele>
        <time>2015-08-31T18:32:27Z</time>
      </trkpt>
      <trkpt lat="48.83427" lon="2.33333">
        <ele>66</ele>
        <time>2015-08-31T18:32:34Z</time>
      </trkpt>
      <trkpt lat="48.83419" lon="2.33339">
        <ele>65.400001525879</ele>
        <time>2015-08-31T18:32:38Z</time>
      </trkpt>
      <trkpt lat="48.83417" lon="2.33342">
        <ele>66</ele>
        <time>2015-08-31T18:32:41Z</time>
      </trkpt>
      <trkpt lat="48.83412" lon="2.33336">
        <ele>67.800003051758</ele>
        <time>2015-08-31T18:33:44Z</time>
      </trkpt>
      <trkpt lat="48.83428" lon="2.33322">
        <ele>68.800003051758</ele>
        <time>2015-08-31T18:33:56Z</time>
      </trkpt>
      <trkpt lat="48.83431" lon="2.33321">
        <ele>69</ele>
        <time>2015-08-31T18:33:59Z</time>
      </trkpt>
      <trkpt lat="48.83439" lon="2.33315">
        <ele>67.599998474121</ele>
        <time>2015-08-31T18:34:26Z</time>
      </trkpt>
      <trkpt lat="48.83446" lon="2.33308">
        <ele>67.599998474121</ele>
        <time>2015-08-31T18:34:30Z</time>
      </trkpt>
      <trkpt lat="48.83453" lon="2.33303">
        <ele>67.599998474121</ele>
        <time>2015-08-31T18:34:35Z</time>
      </trkpt>
      <trkpt lat="48.8347" lon="2.33295">
        <ele>66.599998474121</ele>
        <time>2015-08-31T18:34:48Z</time>
      </trkpt>
      <trkpt lat="48.83478" lon="2.33299">
        <ele>66.400001525879</ele>
        <time>2015-08-31T18:34:52Z</time>
      </trkpt>
      <trkpt lat="48.83498" lon="2.33308">
        <ele>69</ele>
        <time>2015-08-31T18:35:00Z</time>
      </trkpt>
      <trkpt lat="48.83516" lon="2.33318">
        <ele>72.400001525879</ele>
        <time>2015-08-31T18:35:08Z</time>
      </trkpt>
      <trkpt lat="48.83533" lon="2.33332">
        <ele>74.199996948242</ele>
        <time>2015-08-31T18:35:14Z</time>
      </trkpt>
      <trkpt lat="48.83551" lon="2.33352">
        <ele>76.400001525879</ele>
        <time>2015-08-31T18:35:19Z</time>
      </trkpt>
      <trkpt lat="48.83568" lon="2.33366">
        <ele>77.800003051758</ele>
        <time>2015-08-31T18:35:23Z</time>
      </trkpt>
      <trkpt lat="48.83587" lon="2.33383">
        <ele>79.599998474121</ele>
        <time>2015-08-31T18:35:27Z</time>
      </trkpt>
      <trkpt lat="48.83606" lon="2.33403">
        <ele>80</ele>
        <time>2015-08-31T18:35:31Z</time>
      </trkpt>
      <trkpt lat="48.83622" lon="2.33419">
        <ele>73.599998474121</ele>
        <time>2015-08-31T18:35:33Z</time>
      </trkpt>
      <trkpt lat="48.83641" lon="2.33439">
        <ele>73.400001525879</ele>
        <time>2015-08-31T18:35:37Z</time>
      </trkpt>
      <trkpt lat="48.83656" lon="2.33454">
        <ele>73.199996948242</ele>
        <time>2015-08-31T18:35:40Z</time>
      </trkpt>
      <trkpt lat="48.83674" lon="2.3347">
        <ele>72.400001525879</ele>
        <time>2015-08-31T18:35:43Z</time>
      </trkpt>
      <trkpt lat="48.8369" lon="2.33487">
        <ele>69.800003051758</ele>
        <time>2015-08-31T18:35:45Z</time>
      </trkpt>
      <trkpt lat="48.83711" lon="2.33507">
        <ele>67.800003051758</ele>
        <time>2015-08-31T18:35:48Z</time>
      </trkpt>
      <trkpt lat="48.83727" lon="2.33523">
        <ele>66.599998474121</ele>
        <time>2015-08-31T18:35:51Z</time>
      </trkpt>
      <trkpt lat="48.83745" lon="2.33539">
        <ele>65.599998474121</ele>
        <time>2015-08-31T18:35:54Z</time>
      </trkpt>
      <trkpt lat="48.83762" lon="2.33554">
        <ele>65</ele>
        <time>2015-08-31T18:35:57Z</time>
      </trkpt>
      <trkpt lat="48.83777" lon="2.33571">
        <ele>64.199996948242</ele>
        <time>2015-08-31T18:36:00Z</time>
      </trkpt>
      <trkpt lat="48.83796" lon="2.33591">
        <ele>62</ele>
        <time>2015-08-31T18:36:03Z</time>
      </trkpt>
      <trkpt lat="48.83813" lon="2.33611">
        <ele>60.20000076294</ele>
        <time>2015-08-31T18:36:06Z</time>
      </trkpt>
      <trkpt lat="48.83829" lon="2.3363">
        <ele>59.79999923706</ele>
        <time>2015-08-31T18:36:09Z</time>
      </trkpt>
      <trkpt lat="48.83846" lon="2.33649">
        <ele>59.599998474121</ele>
        <time>2015-08-31T18:36:12Z</time>
      </trkpt>
      <trkpt lat="48.83867" lon="2.33663">
        <ele>58.79999923706</ele>
        <time>2015-08-31T18:36:15Z</time>
      </trkpt>
      <trkpt lat="48.83889" lon="2.33673">
        <ele>58.400001525879</ele>
        <time>2015-08-31T18:36:18Z</time>
      </trkpt>
      <trkpt lat="48.83903" lon="2.33675">
        <ele>58</ele>
        <time>2015-08-31T18:36:20Z</time>
      </trkpt>
      <trkpt lat="48.83923" lon="2.33675">
        <ele>58</ele>
        <time>2015-08-31T18:36:23Z</time>
      </trkpt>
      <trkpt lat="48.83945" lon="2.33676">
        <ele>57.599998474121</ele>
        <time>2015-08-31T18:36:27Z</time>
      </trkpt>
      <trkpt lat="48.83953" lon="2.3368">
        <ele>59.20000076294</ele>
        <time>2015-08-31T18:36:31Z</time>
      </trkpt>
      <trkpt lat="48.83954" lon="2.33682">
        <ele>60.20000076294</ele>
        <time>2015-08-31T18:37:48Z</time>
      </trkpt>
      <trkpt lat="48.83973" lon="2.33677">
        <ele>61</ele>
        <time>2015-08-31T18:37:56Z</time>
      </trkpt>
      <trkpt lat="48.83992" lon="2.33679">
        <ele>62.20000076294</ele>
        <time>2015-08-31T18:38:03Z</time>
      </trkpt>
      <trkpt lat="48.8401" lon="2.33685">
        <ele>63.79999923706</ele>
        <time>2015-08-31T18:38:08Z</time>
      </trkpt>
      <trkpt lat="48.8403" lon="2.33694">
        <ele>66</ele>
        <time>2015-08-31T18:38:13Z</time>
      </trkpt>
      <trkpt lat="48.8405" lon="2.33705">
        <ele>67.199996948242</ele>
        <time>2015-08-31T18:38:18Z</time>
      </trkpt>
      <trkpt lat="48.8407" lon="2.33716">
        <ele>69.599998474121</ele>
        <time>2015-08-31T18:38:23Z</time>
      </trkpt>
      <trkpt lat="48.84089" lon="2.33724">
        <ele>72.199996948242</ele>
        <time>2015-08-31T18:38:27Z</time>
      </trkpt>
      <trkpt lat="48.84106" lon="2.33734">
        <ele>72.599998474121</ele>
        <time>2015-08-31T18:38:30Z</time>
      </trkpt>
      <trkpt lat="48.84127" lon="2.33743">
        <ele>73</ele>
        <time>2015-08-31T18:38:33Z</time>
      </trkpt>
      <trkpt lat="48.84148" lon="2.33755">
        <ele>73.400001525879</ele>
        <time>2015-08-31T18:38:36Z</time>
      </trkpt>
      <trkpt lat="48.84167" lon="2.33766">
        <ele>74.199996948242</ele>
        <time>2015-08-31T18:38:39Z</time>
      </trkpt>
      <trkpt lat="48.84188" lon="2.33779">
        <ele>74.599998474121</ele>
        <time>2015-08-31T18:38:42Z</time>
      </trkpt>
      <trkpt lat="48.84209" lon="2.33794">
        <ele>75.400001525879</ele>
        <time>2015-08-31T18:38:45Z</time>
      </trkpt>
      <trkpt lat="48.84231" lon="2.33806">
        <ele>76.199996948242</ele>
        <time>2015-08-31T18:38:48Z</time>
      </trkpt>
      <trkpt lat="48.84254" lon="2.33817">
        <ele>77</ele>
        <time>2015-08-31T18:38:51Z</time>
      </trkpt>
      <trkpt lat="48.84275" lon="2.33828">
        <ele>77.599998474121</ele>
        <time>2015-08-31T18:38:54Z</time>
      </trkpt>
      <trkpt lat="48.84296" lon="2.3384">
        <ele>78.800003051758</ele>
        <time>2015-08-31T18:38:57Z</time>
      </trkpt>
      <trkpt lat="48.84316" lon="2.33848">
        <ele>80</ele>
        <time>2015-08-31T18:39:00Z</time>
      </trkpt>
      <trkpt lat="48.84334" lon="2.33853">
        <ele>82</ele>
        <time>2015-08-31T18:39:03Z</time>
      </trkpt>
      <trkpt lat="48.84353" lon="2.33859">
        <ele>83.800003051758</ele>
        <time>2015-08-31T18:39:06Z</time>
      </trkpt>
      <trkpt lat="48.84371" lon="2.33868">
        <ele>86</ele>
        <time>2015-08-31T18:39:09Z</time>
      </trkpt>
      <trkpt lat="48.84377" lon="2.33871">
        <ele>86.599998474121</ele>
        <time>2015-08-31T18:39:10Z</time>
      </trkpt>
      <trkpt lat="48.84396" lon="2.33881">
        <ele>89</ele>
        <time>2015-08-31T18:39:13Z</time>
      </trkpt>
      <trkpt lat="48.84418" lon="2.33892">
        <ele>90.199996948242</ele>
        <time>2015-08-31T18:39:16Z</time>
      </trkpt>
      <trkpt lat="48.8444" lon="2.33905">
        <ele>90.599998474121</ele>
        <time>2015-08-31T18:39:19Z</time>
      </trkpt>
      <trkpt lat="48.84462" lon="2.33918">
        <ele>91.199996948242</ele>
        <time>2015-08-31T18:39:22Z</time>
      </trkpt>
      <trkpt lat="48.84485" lon="2.3393">
        <ele>92.400001525879</ele>
        <time>2015-08-31T18:39:25Z</time>
      </trkpt>
      <trkpt lat="48.84508" lon="2.33941">
        <ele>93.400001525879</ele>
        <time>2015-08-31T18:39:28Z</time>
      </trkpt>
      <trkpt lat="48.84531" lon="2.33951">
        <ele>94.400001525879</ele>
        <time>2015-08-31T18:39:31Z</time>
      </trkpt>
      <trkpt lat="48.84552" lon="2.33961">
        <ele>95.800003051758</ele>
        <time>2015-08-31T18:39:34Z</time>
      </trkpt>
      <trkpt lat="48.84571" lon="2.33973">
        <ele>96.599998474121</ele>
        <time>2015-08-31T18:39:37Z</time>
      </trkpt>
      <trkpt lat="48.84592" lon="2.33985">
        <ele>96.599998474121</ele>
        <time>2015-08-31T18:39:41Z</time>
      </trkpt>
      <trkpt lat="48.8461" lon="2.33993">
        <ele>96.599998474121</ele>
        <time>2015-08-31T18:39:45Z</time>
      </trkpt>
      <trkpt lat="48.84618" lon="2.33997">
        <ele>97.199996948242</ele>
        <time>2015-08-31T18:39:47Z</time>
      </trkpt>
      <trkpt lat="48.84638" lon="2.34006">
        <ele>98.199996948242</ele>
        <time>2015-08-31T18:39:52Z</time>
      </trkpt>
      <trkpt lat="48.84653" lon="2.34014">
        <ele>99.400001525879</ele>
        <time>2015-08-31T18:39:56Z</time>
      </trkpt>
      <trkpt lat="48.84663" lon="2.34027">
        <ele>99.400001525879</ele>
        <time>2015-08-31T18:39:59Z</time>
      </trkpt>
      <trkpt lat="48.84672" lon="2.34038">
        <ele>98.599998474121</ele>
        <time>2015-08-31T18:40:03Z</time>
      </trkpt>
      <trkpt lat="48.84678" lon="2.34043">
        <ele>99.199996948242</ele>
        <time>2015-08-31T18:40:06Z</time>
      </trkpt>
      <trkpt lat="48.84688" lon="2.34045">
        <ele>103.40000152588</ele>
        <time>2015-08-31T18:40:11Z</time>
      </trkpt>
      <trkpt lat="48.8469" lon="2.34045">
        <ele>105.19999694824</ele>
        <time>2015-08-31T18:40:12Z</time>
      </trkpt>
      <trkpt lat="48.84705" lon="2.34049">
        <ele>98</ele>
        <time>2015-08-31T18:40:16Z</time>
      </trkpt>
      <trkpt lat="48.84722" lon="2.34062">
        <ele>93.199996948242</ele>
        <time>2015-08-31T18:40:22Z</time>
      </trkpt>
      <trkpt lat="48.84722" lon="2.34071">
        <ele>93.400001525879</ele>
        <time>2015-08-31T18:40:25Z</time>
      </trkpt>
      <trkpt lat="48.84723" lon="2.34077">
        <ele>91.400001525879</ele>
        <time>2015-08-31T18:40:29Z</time>
      </trkpt>
      <trkpt lat="48.84723" lon="2.34079">
        <ele>90.599998474121</ele>
        <time>2015-08-31T18:40:32Z</time>
      </trkpt>
      <trkpt lat="48.84724" lon="2.34095">
        <ele>75.400001525879</ele>
        <time>2015-08-31T18:42:12Z</time>
      </trkpt>
      <trkpt lat="48.84729" lon="2.34091">
        <ele>75.199996948242</ele>
        <time>2015-08-31T18:42:17Z</time>
      </trkpt>
      <trkpt lat="48.84747" lon="2.34103">
        <ele>75.400001525879</ele>
        <time>2015-08-31T18:42:26Z</time>
      </trkpt>
      <trkpt lat="48.84752" lon="2.34105">
        <ele>75.400001525879</ele>
        <time>2015-08-31T18:42:27Z</time>
      </trkpt>
      <trkpt lat="48.84775" lon="2.34113">
        <ele>76.599998474121</ele>
        <time>2015-08-31T18:42:31Z</time>
      </trkpt>
      <trkpt lat="48.84797" lon="2.34121">
        <ele>78</ele>
        <time>2015-08-31T18:42:35Z</time>
      </trkpt>
      <trkpt lat="48.84812" lon="2.34129">
        <ele>79</ele>
        <time>2015-08-31T18:42:38Z</time>
      </trkpt>
      <trkpt lat="48.84831" lon="2.34138">
        <ele>81.199996948242</ele>
        <time>2015-08-31T18:42:42Z</time>
      </trkpt>
      <trkpt lat="48.84853" lon="2.34148">
        <ele>84</ele>
        <time>2015-08-31T18:42:46Z</time>
      </trkpt>
      <trkpt lat="48.84875" lon="2.3416">
        <ele>85.599998474121</ele>
        <time>2015-08-31T18:42:50Z</time>
      </trkpt>
      <trkpt lat="48.84885" lon="2.34167">
        <ele>86.599998474121</ele>
        <time>2015-08-31T18:42:52Z</time>
      </trkpt>
      <trkpt lat="48.84902" lon="2.34177">
        <ele>87.800003051758</ele>
        <time>2015-08-31T18:42:55Z</time>
      </trkpt>
      <trkpt lat="48.84925" lon="2.3419">
        <ele>90.199996948242</ele>
        <time>2015-08-31T18:42:59Z</time>
      </trkpt>
      <trkpt lat="48.84942" lon="2.34199">
        <ele>91.800003051758</ele>
        <time>2015-08-31T18:43:02Z</time>
      </trkpt>
      <trkpt lat="48.8496" lon="2.34209">
        <ele>92.199996948242</ele>
        <time>2015-08-31T18:43:05Z</time>
      </trkpt>
      <trkpt lat="48.84977" lon="2.34222">
        <ele>93.199996948242</ele>
        <time>2015-08-31T18:43:08Z</time>
      </trkpt>
      <trkpt lat="48.84983" lon="2.34224">
        <ele>93.599998474121</ele>
        <time>2015-08-31T18:43:09Z</time>
      </trkpt>
      <trkpt lat="48.84995" lon="2.3423">
        <ele>94.400001525879</ele>
        <time>2015-08-31T18:43:11Z</time>
      </trkpt>
      <trkpt lat="48.85018" lon="2.34241">
        <ele>94.199996948242</ele>
        <time>2015-08-31T18:43:15Z</time>
      </trkpt>
      <trkpt lat="48.85024" lon="2.34244">
        <ele>93.400001525879</ele>
        <time>2015-08-31T18:43:16Z</time>
      </trkpt>
      <trkpt lat="48.85046" lon="2.34262">
        <ele>78.400001525879</ele>
        <time>2015-08-31T18:43:18Z</time>
      </trkpt>
      <trkpt lat="48.85067" lon="2.34275">
        <ele>72.400001525879</ele>
        <time>2015-08-31T18:43:21Z</time>
      </trkpt>
      <trkpt lat="48.85088" lon="2.34287">
        <ele>69</ele>
        <time>2015-08-31T18:43:25Z</time>
      </trkpt>
      <trkpt lat="48.85108" lon="2.34297">
        <ele>65.800003051758</ele>
        <time>2015-08-31T18:43:30Z</time>
      </trkpt>
      <trkpt lat="48.85123" lon="2.34306">
        <ele>60.20000076294</ele>
        <time>2015-08-31T18:43:37Z</time>
      </trkpt>
      <trkpt lat="48.85141" lon="2.34317">
        <ele>53.79999923706</ele>
        <time>2015-08-31T18:43:52Z</time>
      </trkpt>
      <trkpt lat="48.85159" lon="2.34328">
        <ele>54</ele>
        <time>2015-08-31T18:43:58Z</time>
      </trkpt>
      <trkpt lat="48.85179" lon="2.34336">
        <ele>55.599998474121</ele>
        <time>2015-08-31T18:44:04Z</time>
      </trkpt>
      <trkpt lat="48.85198" lon="2.34344">
        <ele>58.20000076294</ele>
        <time>2015-08-31T18:44:09Z</time>
      </trkpt>
      <trkpt lat="48.85215" lon="2.34351">
        <ele>61</ele>
        <time>2015-08-31T18:44:13Z</time>
      </trkpt>
      <trkpt lat="48.85233" lon="2.34357">
        <ele>63.599998474121</ele>
        <time>2015-08-31T18:44:17Z</time>
      </trkpt>
      <trkpt lat="48.85253" lon="2.34364">
        <ele>67.199996948242</ele>
        <time>2015-08-31T18:44:22Z</time>
      </trkpt>
      <trkpt lat="48.85271" lon="2.34371">
        <ele>69.599998474121</ele>
        <time>2015-08-31T18:44:26Z</time>
      </trkpt>
      <trkpt lat="48.85292" lon="2.34377">
        <ele>73.199996948242</ele>
        <time>2015-08-31T18:44:31Z</time>
      </trkpt>
      <trkpt lat="48.85312" lon="2.34387">
        <ele>76.800003051758</ele>
        <time>2015-08-31T18:44:36Z</time>
      </trkpt>
      <trkpt lat="48.8533" lon="2.34405">
        <ele>74</ele>
        <time>2015-08-31T18:44:40Z</time>
      </trkpt>
      <trkpt lat="48.85345" lon="2.34421">
        <ele>68.400001525879</ele>
        <time>2015-08-31T18:44:43Z</time>
      </trkpt>
      <trkpt lat="48.85351" lon="2.34426">
        <ele>64.800003051758</ele>
        <time>2015-08-31T18:44:44Z</time>
      </trkpt>
      <trkpt lat="48.85364" lon="2.34442">
        <ele>47.20000076294</ele>
        <time>2015-08-31T18:45:14Z</time>
      </trkpt>
      <trkpt lat="48.85383" lon="2.34449">
        <ele>45.79999923706</ele>
        <time>2015-08-31T18:45:29Z</time>
      </trkpt>
      <trkpt lat="48.85401" lon="2.34464">
        <ele>44</ele>
        <time>2015-08-31T18:45:35Z</time>
      </trkpt>
      <trkpt lat="48.85416" lon="2.3448">
        <ele>42.79999923706</ele>
        <time>2015-08-31T18:45:40Z</time>
      </trkpt>
      <trkpt lat="48.85431" lon="2.34498">
        <ele>42.400001525879</ele>
        <time>2015-08-31T18:45:45Z</time>
      </trkpt>
      <trkpt lat="48.85448" lon="2.34514">
        <ele>41.79999923706</ele>
        <time>2015-08-31T18:45:50Z</time>
      </trkpt>
      <trkpt lat="48.85464" lon="2.34532">
        <ele>41.20000076294</ele>
        <time>2015-08-31T18:45:56Z</time>
      </trkpt>
      <trkpt lat="48.85479" lon="2.34548">
        <ele>41.400001525879</ele>
        <time>2015-08-31T18:46:02Z</time>
      </trkpt>
      <trkpt lat="48.85498" lon="2.34562">
        <ele>42.20000076294</ele>
        <time>2015-08-31T18:46:07Z</time>
      </trkpt>
      <trkpt lat="48.85513" lon="2.3458">
        <ele>41.79999923706</ele>
        <time>2015-08-31T18:46:11Z</time>
      </trkpt>
      <trkpt lat="48.85532" lon="2.34593">
        <ele>40.79999923706</ele>
        <time>2015-08-31T18:46:15Z</time>
      </trkpt>
      <trkpt lat="48.8555" lon="2.34608">
        <ele>41.20000076294</ele>
        <time>2015-08-31T18:46:20Z</time>
      </trkpt>
      <trkpt lat="48.85569" lon="2.34621">
        <ele>42</ele>
        <time>2015-08-31T18:46:26Z</time>
      </trkpt>
      <trkpt lat="48.85585" lon="2.34635">
        <ele>40</ele>
        <time>2015-08-31T18:46:30Z</time>
      </trkpt>
      <trkpt lat="48.85605" lon="2.34649">
        <ele>36.20000076294</ele>
        <time>2015-08-31T18:46:34Z</time>
      </trkpt>
      <trkpt lat="48.85607" lon="2.34653">
        <ele>36</ele>
        <time>2015-08-31T18:46:35Z</time>
      </trkpt>
      <trkpt lat="48.85623" lon="2.34671">
        <ele>33.599998474121</ele>
        <time>2015-08-31T18:46:40Z</time>
      </trkpt>
      <trkpt lat="48.85626" lon="2.34672">
        <ele>33.400001525879</ele>
        <time>2015-08-31T18:46:41Z</time>
      </trkpt>
      <trkpt lat="48.85633" lon="2.34676">
        <ele>33.79999923706</ele>
        <time>2015-08-31T18:46:43Z</time>
      </trkpt>
      <trkpt lat="48.85641" lon="2.34683">
        <ele>34.20000076294</ele>
        <time>2015-08-31T18:46:46Z</time>
      </trkpt>
      <trkpt lat="48.85656" lon="2.34692">
        <ele>36.20000076294</ele>
        <time>2015-08-31T18:46:51Z</time>
      </trkpt>
      <trkpt lat="48.85673" lon="2.34703">
        <ele>36.400001525879</ele>
        <time>2015-08-31T18:46:57Z</time>
      </trkpt>
      <trkpt lat="48.8569" lon="2.34713">
        <ele>37.400001525879</ele>
        <time>2015-08-31T18:47:03Z</time>
      </trkpt>
      <trkpt lat="48.85704" lon="2.34723">
        <ele>38.599998474121</ele>
        <time>2015-08-31T18:47:10Z</time>
      </trkpt>
      <trkpt lat="48.85712" lon="2.34736">
        <ele>42</ele>
        <time>2015-08-31T18:48:06Z</time>
      </trkpt>
      <trkpt lat="48.85727" lon="2.34756">
        <ele>42.400001525879</ele>
        <time>2015-08-31T18:48:13Z</time>
      </trkpt>
      <trkpt lat="48.85746" lon="2.34768">
        <ele>42.599998474121</ele>
        <time>2015-08-31T18:48:18Z</time>
      </trkpt>
      <trkpt lat="48.85766" lon="2.34781">
        <ele>41.599998474121</ele>
        <time>2015-08-31T18:48:22Z</time>
      </trkpt>
      <trkpt lat="48.85785" lon="2.3479">
        <ele>41.599998474121</ele>
        <time>2015-08-31T18:48:26Z</time>
      </trkpt>
      <trkpt lat="48.85804" lon="2.34804">
        <ele>39.400001525879</ele>
        <time>2015-08-31T18:48:31Z</time>
      </trkpt>
      <trkpt lat="48.85823" lon="2.34814">
        <ele>38.599998474121</ele>
        <time>2015-08-31T18:48:35Z</time>
      </trkpt>
      <trkpt lat="48.85835" lon="2.34822">
        <ele>38.599998474121</ele>
        <time>2015-08-31T18:48:38Z</time>
      </trkpt>
      <trkpt lat="48.85844" lon="2.34832">
        <ele>39.599998474121</ele>
        <time>2015-08-31T18:48:41Z</time>
      </trkpt>
      <trkpt lat="48.85849" lon="2.34828">
        <ele>43</ele>
        <time>2015-08-31T18:48:53Z</time>
      </trkpt>
      <trkpt lat="48.85867" lon="2.34838">
        <ele>44.20000076294</ele>
        <time>2015-08-31T18:48:58Z</time>
      </trkpt>
      <trkpt lat="48.85878" lon="2.34844">
        <ele>45.20000076294</ele>
        <time>2015-08-31T18:49:01Z</time>
      </trkpt>
      <trkpt lat="48.85895" lon="2.34857">
        <ele>46.599998474121</ele>
        <time>2015-08-31T18:49:06Z</time>
      </trkpt>
      <trkpt lat="48.85915" lon="2.34865">
        <ele>49.20000076294</ele>
        <time>2015-08-31T18:49:12Z</time>
      </trkpt>
      <trkpt lat="48.85934" lon="2.34874">
        <ele>54</ele>
        <time>2015-08-31T18:49:18Z</time>
      </trkpt>
      <trkpt lat="48.85955" lon="2.34883">
        <ele>58.79999923706</ele>
        <time>2015-08-31T18:49:25Z</time>
      </trkpt>
      <trkpt lat="48.85974" lon="2.3489">
        <ele>64</ele>
        <time>2015-08-31T18:49:30Z</time>
      </trkpt>
      <trkpt lat="48.85995" lon="2.349">
        <ele>67.199996948242</ele>
        <time>2015-08-31T18:49:35Z</time>
      </trkpt>
      <trkpt lat="48.86013" lon="2.34909">
        <ele>71.199996948242</ele>
        <time>2015-08-31T18:49:40Z</time>
      </trkpt>
      <trkpt lat="48.86032" lon="2.34918">
        <ele>74.599998474121</ele>
        <time>2015-08-31T18:49:45Z</time>
      </trkpt>
      <trkpt lat="48.8605" lon="2.34926">
        <ele>78</ele>
        <time>2015-08-31T18:49:49Z</time>
      </trkpt>
      <trkpt lat="48.86069" lon="2.34936">
        <ele>81</ele>
        <time>2015-08-31T18:49:53Z</time>
      </trkpt>
      <trkpt lat="48.86078" lon="2.34939">
        <ele>82.599998474121</ele>
        <time>2015-08-31T18:49:55Z</time>
      </trkpt>
      <trkpt lat="48.86098" lon="2.34949">
        <ele>86.800003051758</ele>
        <time>2015-08-31T18:50:00Z</time>
      </trkpt>
      <trkpt lat="48.86115" lon="2.34959">
        <ele>90.599998474121</ele>
        <time>2015-08-31T18:50:04Z</time>
      </trkpt>
      <trkpt lat="48.86133" lon="2.3497">
        <ele>94</ele>
        <time>2015-08-31T18:50:08Z</time>
      </trkpt>
      <trkpt lat="48.86138" lon="2.34972">
        <ele>94.800003051758</ele>
        <time>2015-08-31T18:50:09Z</time>
      </trkpt>
      <trkpt lat="48.86153" lon="2.3498">
        <ele>97</ele>
        <time>2015-08-31T18:50:12Z</time>
      </trkpt>
      <trkpt lat="48.86175" lon="2.34993">
        <ele>96.599998474121</ele>
        <time>2015-08-31T18:50:16Z</time>
      </trkpt>
      <trkpt lat="48.86196" lon="2.35006">
        <ele>95.400001525879</ele>
        <time>2015-08-31T18:50:20Z</time>
      </trkpt>
      <trkpt lat="48.862" lon="2.35009">
        <ele>95.400001525879</ele>
        <time>2015-08-31T18:50:21Z</time>
      </trkpt>
      <trkpt lat="48.86213" lon="2.35018">
        <ele>96</ele>
        <time>2015-08-31T18:50:24Z</time>
      </trkpt>
      <trkpt lat="48.86233" lon="2.3503">
        <ele>95.800003051758</ele>
        <time>2015-08-31T18:50:28Z</time>
      </trkpt>
      <trkpt lat="48.86251" lon="2.35038">
        <ele>98</ele>
        <time>2015-08-31T18:50:32Z</time>
      </trkpt>
      <trkpt lat="48.86269" lon="2.35049">
        <ele>100.40000152588</ele>
        <time>2015-08-31T18:50:36Z</time>
      </trkpt>
      <trkpt lat="48.86278" lon="2.35055">
        <ele>101.40000152588</ele>
        <time>2015-08-31T18:50:38Z</time>
      </trkpt>
      <trkpt lat="48.86288" lon="2.35061">
        <ele>102.19999694824</ele>
        <time>2015-08-31T18:50:40Z</time>
      </trkpt>
      <trkpt lat="48.86317" lon="2.35075">
        <ele>95.400001525879</ele>
        <time>2015-08-31T18:50:45Z</time>
      </trkpt>
      <trkpt lat="48.86322" lon="2.35078">
        <ele>94.599998474121</ele>
        <time>2015-08-31T18:50:47Z</time>
      </trkpt>
      <trkpt lat="48.86341" lon="2.35093">
        <ele>94.800003051758</ele>
        <time>2015-08-31T18:50:51Z</time>
      </trkpt>
      <trkpt lat="48.86348" lon="2.35098">
        <ele>95.400001525879</ele>
        <time>2015-08-31T18:50:53Z</time>
      </trkpt>
      <trkpt lat="48.86364" lon="2.35107">
        <ele>96.800003051758</ele>
        <time>2015-08-31T18:50:57Z</time>
      </trkpt>
      <trkpt lat="48.86371" lon="2.3511">
        <ele>97.800003051758</ele>
        <time>2015-08-31T18:50:59Z</time>
      </trkpt>
      <trkpt lat="48.86388" lon="2.35121">
        <ele>100.59999847412</ele>
        <time>2015-08-31T18:51:04Z</time>
      </trkpt>
      <trkpt lat="48.86396" lon="2.35124">
        <ele>101</ele>
        <time>2015-08-31T18:51:06Z</time>
      </trkpt>
      <trkpt lat="48.86412" lon="2.35131">
        <ele>101.80000305176</ele>
        <time>2015-08-31T18:51:11Z</time>
      </trkpt>
      <trkpt lat="48.86424" lon="2.35139">
        <ele>93.599998474121</ele>
        <time>2015-08-31T18:51:13Z</time>
      </trkpt>
      <trkpt lat="48.86436" lon="2.35145">
        <ele>91</ele>
        <time>2015-08-31T18:51:16Z</time>
      </trkpt>
      <trkpt lat="48.86453" lon="2.35153">
        <ele>88</ele>
        <time>2015-08-31T18:51:21Z</time>
      </trkpt>
      <trkpt lat="48.86471" lon="2.35162">
        <ele>87.800003051758</ele>
        <time>2015-08-31T18:51:26Z</time>
      </trkpt>
      <trkpt lat="48.86489" lon="2.35169">
        <ele>88.599998474121</ele>
        <time>2015-08-31T18:51:31Z</time>
      </trkpt>
      <trkpt lat="48.86509" lon="2.35179">
        <ele>88.800003051758</ele>
        <time>2015-08-31T18:51:37Z</time>
      </trkpt>
      <trkpt lat="48.86528" lon="2.35191">
        <ele>85.199996948242</ele>
        <time>2015-08-31T18:51:42Z</time>
      </trkpt>
      <trkpt lat="48.8654" lon="2.35201">
        <ele>83.400001525879</ele>
        <time>2015-08-31T18:51:46Z</time>
      </trkpt>
      <trkpt lat="48.86543" lon="2.35204">
        <ele>82.800003051758</ele>
        <time>2015-08-31T18:51:47Z</time>
      </trkpt>
      <trkpt lat="48.86561" lon="2.35214">
        <ele>80.599998474121</ele>
        <time>2015-08-31T18:51:52Z</time>
      </trkpt>
      <trkpt lat="48.86579" lon="2.35224">
        <ele>78.800003051758</ele>
        <time>2015-08-31T18:51:58Z</time>
      </trkpt>
      <trkpt lat="48.866" lon="2.35234">
        <ele>75.400001525879</ele>
        <time>2015-08-31T18:52:05Z</time>
      </trkpt>
      <trkpt lat="48.86618" lon="2.35245">
        <ele>76.199996948242</ele>
        <time>2015-08-31T18:52:11Z</time>
      </trkpt>
      <trkpt lat="48.86638" lon="2.35256">
        <ele>79</ele>
        <time>2015-08-31T18:52:16Z</time>
      </trkpt>
      <trkpt lat="48.86659" lon="2.35267">
        <ele>81</ele>
        <time>2015-08-31T18:52:21Z</time>
      </trkpt>
      <trkpt lat="48.86676" lon="2.35277">
        <ele>82.400001525879</ele>
        <time>2015-08-31T18:52:25Z</time>
      </trkpt>
      <trkpt lat="48.86696" lon="2.35291">
        <ele>79.400001525879</ele>
        <time>2015-08-31T18:52:29Z</time>
      </trkpt>
      <trkpt lat="48.86716" lon="2.35303">
        <ele>79.199996948242</ele>
        <time>2015-08-31T18:52:33Z</time>
      </trkpt>
      <trkpt lat="48.86733" lon="2.35315">
        <ele>79</ele>
        <time>2015-08-31T18:52:37Z</time>
      </trkpt>
      <trkpt lat="48.86748" lon="2.35323">
        <ele>79.599998474121</ele>
        <time>2015-08-31T18:52:41Z</time>
      </trkpt>
      <trkpt lat="48.86763" lon="2.35331">
        <ele>79</ele>
        <time>2015-08-31T18:52:45Z</time>
      </trkpt>
      <trkpt lat="48.86782" lon="2.35339">
        <ele>79.599998474121</ele>
        <time>2015-08-31T18:52:50Z</time>
      </trkpt>
      <trkpt lat="48.86795" lon="2.35344">
        <ele>80</ele>
        <time>2015-08-31T18:52:54Z</time>
      </trkpt>
      <trkpt lat="48.86813" lon="2.35352">
        <ele>80</ele>
        <time>2015-08-31T18:53:00Z</time>
      </trkpt>
      <trkpt lat="48.86816" lon="2.35354">
        <ele>80</ele>
        <time>2015-08-31T18:53:01Z</time>
      </trkpt>
      <trkpt lat="48.86826" lon="2.35358">
        <ele>78.800003051758</ele>
        <time>2015-08-31T18:53:04Z</time>
      </trkpt>
      <trkpt lat="48.86844" lon="2.35368">
        <ele>76.599998474121</ele>
        <time>2015-08-31T18:53:10Z</time>
      </trkpt>
      <trkpt lat="48.8685" lon="2.35378">
        <ele>73.800003051758</ele>
        <time>2015-08-31T18:53:16Z</time>
      </trkpt>
      <trkpt lat="48.86858" lon="2.35355">
        <ele>70.800003051758</ele>
        <time>2015-08-31T18:53:24Z</time>
      </trkpt>
      <trkpt lat="48.86866" lon="2.35324">
        <ele>67.800003051758</ele>
        <time>2015-08-31T18:53:30Z</time>
      </trkpt>
      <trkpt lat="48.86868" lon="2.35296">
        <ele>64</ele>
        <time>2015-08-31T18:53:36Z</time>
      </trkpt>
      <trkpt lat="48.86876" lon="2.35267">
        <ele>59</ele>
        <time>2015-08-31T18:53:44Z</time>
      </trkpt>
      <trkpt lat="48.8688" lon="2.3524">
        <ele>55.20000076294</ele>
        <time>2015-08-31T18:53:50Z</time>
      </trkpt>
      <trkpt lat="48.86885" lon="2.3521">
        <ele>52</ele>
        <time>2015-08-31T18:53:56Z</time>
      </trkpt>
      <trkpt lat="48.86888" lon="2.35187">
        <ele>49</ele>
        <time>2015-08-31T18:54:03Z</time>
      </trkpt>
      <trkpt lat="48.86896" lon="2.35183">
        <ele>47.20000076294</ele>
        <time>2015-08-31T18:54:07Z</time>
      </trkpt>
      <trkpt lat="48.86914" lon="2.35175">
        <ele>44.599998474121</ele>
        <time>2015-08-31T18:54:14Z</time>
      </trkpt>
      <trkpt lat="48.86931" lon="2.35162">
        <ele>44.599998474121</ele>
        <time>2015-08-31T18:54:20Z</time>
      </trkpt>
      <trkpt lat="48.86947" lon="2.35149">
        <ele>45.20000076294</ele>
        <time>2015-08-31T18:54:27Z</time>
      </trkpt>
      <trkpt lat="48.86958" lon="2.35125">
        <ele>45</ele>
        <time>2015-08-31T18:54:35Z</time>
      </trkpt>
      <trkpt lat="48.86958" lon="2.35097">
        <ele>44.79999923706</ele>
        <time>2015-08-31T18:54:41Z</time>
      </trkpt>
      <trkpt lat="48.86948" lon="2.3507">
        <ele>45.400001525879</ele>
        <time>2015-08-31T18:54:48Z</time>
      </trkpt>
      <trkpt lat="48.86944" lon="2.35037">
        <ele>43</ele>
        <time>2015-08-31T18:54:54Z</time>
      </trkpt>
      <trkpt lat="48.86941" lon="2.35007">
        <ele>42</ele>
        <time>2015-08-31T18:55:01Z</time>
      </trkpt>
      <trkpt lat="48.8694" lon="2.34977">
        <ele>41.20000076294</ele>
        <time>2015-08-31T18:55:08Z</time>
      </trkpt>
      <trkpt lat="48.86944" lon="2.34969">
        <ele>40.599998474121</ele>
        <time>2015-08-31T18:55:11Z</time>
      </trkpt>
      <trkpt lat="48.86949" lon="2.34971">
        <ele>40.599998474121</ele>
        <time>2015-08-31T18:55:15Z</time>
      </trkpt>
      <trkpt lat="48.86964" lon="2.34984">
        <ele>42.400001525879</ele>
        <time>2015-08-31T18:55:23Z</time>
      </trkpt>
      <trkpt lat="48.86971" lon="2.34982">
        <ele>43.599998474121</ele>
        <time>2015-08-31T18:55:26Z</time>
      </trkpt>
      <trkpt lat="48.86977" lon="2.34991">
        <ele>50.20000076294</ele>
        <time>2015-08-31T18:55:38Z</time>
      </trkpt>
    </trkseg>
  </trk>
</gpx>